[[{"header":{"parameterUnit":"m.s-1","parameterCategory":1,"la1":30.2992,"la2":30.254,"lo1":-89.0895,"lo2":-89.0443,"dy":0.0025,"dx":0.0025,"nx":19,"ny":19,"refTime":"2026-03-19T09:00:00:Z","depth":0,"parameterNumber":2,"parameterNumberName":"U-component_of_WINDS"},"data":[0,0,0,-0.0021,-0.0021,0.0012,0.0012,0.0056,0.0057,0,0,0,0,0,0,0,0,0,0,0,-0.003,-0.003,-0.0021,-0.0021,0.0012,0.0012,0.0056,0.0057,0,0,0,0,0,0,0,0,0,0,0,-0.003,-0.003,-0.003,-0.002,0.0012,0.0012,0.0056,0.0031,0,0,0,0,0,0,0,0,0,0,-0.0001,-0.0009,-0.003,-0.003,-0.002,0.0012,0.0012,0.003,0.0032,0.0042,0,0.005,0,0.0054,0.006,0.006,0,0,0,-0.0021,-0.0011,-0.0003,-0.003,-0.002,0.0012,-0.0003,0.0031,0.0034,0.0046,0.0051,0.0052,0.0055,0.006,0.006,0.0113,0.0113,0,0,-0.0022,-0.0024,-0.0006,-0.0001,-0.0007,-0.0004,-0.0002,0.0033,0.0039,0.0051,0.0053,0.0055,0.006,0.0061,0.0113,0.0113,0,0,0,-0.0028,-0.0025,-0.0018,-0.0003,0.0003,-0.0003,-0.0,0.0037,0.004,0.0054,0.0056,0.0061,0.0061,0.0112,0.0113,0.0123,0,0,0,-0.0029,-0.0028,-0.0019,-0.0019,0.0002,0.002,0.0003,0.0037,0.0041,0.0056,0.0061,0.0061,0.0112,0.0113,0.0123,0.013,0,0,0,-0.0033,-0.0028,-0.0024,-0.0019,-0.0005,0.002,0.0024,0.0038,0.0043,0.006,0.0062,0.0112,0.0112,0.0122,0.0128,0.0142,0,0,0,-0.0037,-0.0013,-0.0023,0.0004,-0.0005,0.0026,0.0024,0.0048,0.0064,0.0061,0.0112,0.0113,0.0122,0.0127,0.0142,0.0155,0.016,0,0,-0.0007,-0.0009,0.0007,-0.0002,0.0031,0.0021,0.0055,0.0072,0.0075,0.01,0.0101,0.0123,0.0128,0.0142,0.0188,0.0192,0,0,0,0.0016,0.0027,0.0036,0.005,0.0062,0.0073,0.0084,0.009,0.011,0.0087,0.0132,0.0135,0.0143,0.015,0.0153,0.016,0.0115,0.0115,0.0115,0.0058,0.0059,0.0085,0.0089,0.0103,0.0112,0.0124,0.0133,0.0132,0.0142,0.015,0.0177,0.0184,0.0187,0.0194,0.0156,0.0156,0.0156,0.0156,0.0102,0.0118,0.0112,0.0136,0.0136,0.0157,0.0166,0.0164,0.0182,0.0172,0.0179,0.0169,0.0191,0.0198,0.0157,0.0157,0.0157,0.0157,0.0157,0.013,0.0138,0.0143,0.0162,0.0176,0.0179,0.0197,0.0197,0.0198,0.0205,0.0212,0.0212,0.0212,0.0208,0.0208,0.0208,0.0208,0.0208,0.0208,0.0158,0.0163,0.0177,0.0189,0.0197,0.0207,0.0215,0.0223,0.0232,0.0231,0.0231,0.0228,0.0193,0.0185,0.021,0.021,0.0209,0.0209,0.0209,0.0204,0.0192,0.0214,0.0222,0.0235,0.0249,0.0247,0.0263,0.0269,0.0278,0.0272,0.0246,0.0245,0.0242,0.0235,0.0272,0.0272,0.0272,0.0272,0.0228,0.0226,0.0247,0.0259,0.0271,0.0271,0.0295,0.03,0.0304,0.0308,0.0302,0.0292,0.0289,0.029,0.0286,0.0279,0.0327,0.0327,0.0327,0.0256,0.0255,0.0276,0.0277,0.0287,0.0295,0.0317,0.0331,0.0333,0.0329,0.0311,0.0308,0.0293,0.0287,0.0285,0.0279,0.0267,0,0]},{"header":{"parameterUnit":"m.s-1","parameterCategory":1,"la1":30.2992,"la2":30.254,"lo1":-89.0895,"lo2":-89.0443,"dy":0.0025,"dx":0.0025,"nx":19,"ny":19,"refTime":"2026-03-19T09:00:00:Z","depth":0,"parameterNumber":3,"parameterNumberName":"V-component_of_WINDS"},"data":[0,0,0,2.5478,2.5476,2.5401,2.5401,2.5292,2.5291,0,0,0,0,0,0,0,0,0,0,0,2.5495,2.5495,2.5478,2.5476,2.5401,2.5401,2.5292,2.5291,0,0,0,0,0,0,0,0,0,0,0,2.5496,2.5495,2.5494,2.5476,2.5401,2.5401,2.5292,2.5353,0,0,0,0,0,0,0,0,0,0,2.5428,2.544,2.5495,2.5494,2.5475,2.5401,2.5401,2.5356,2.5349,2.5321,0,2.5298,0,2.5293,2.5283,2.5283,0,0,0,2.5479,2.5446,2.543,2.5494,2.5475,2.5401,2.5436,2.5352,2.5344,2.5312,2.5297,2.5293,2.5291,2.5282,2.5282,2.5118,2.5117,0,0,2.5483,2.5479,2.5435,2.5425,2.5439,2.5438,2.5433,2.5348,2.5329,2.5296,2.5291,2.5289,2.5281,2.528,2.5119,2.5118,0,0,0,2.5493,2.5481,2.5468,2.5429,2.5417,2.5436,2.543,2.5333,2.5329,2.5289,2.5288,2.5281,2.5279,2.512,2.5118,2.5068,0,0,0,2.5496,2.5487,2.547,2.5466,2.5418,2.5374,2.5417,2.5335,2.5326,2.5289,2.5281,2.5278,2.5121,2.5119,2.5072,2.5044,0,0,0,2.5502,2.5488,2.5476,2.5466,2.5434,2.5376,2.5367,2.5333,2.5324,2.5282,2.5278,2.5121,2.5119,2.5075,2.505,2.4998,0,0,0,2.5506,2.5433,2.5475,2.5392,2.5435,2.5347,2.5368,2.5303,2.5261,2.528,2.5121,2.5118,2.5076,2.5053,2.5001,2.4951,2.4931,0,0,2.5411,2.5421,2.5373,2.5408,2.5312,2.5359,2.5255,2.522,2.5219,2.5151,2.5147,2.5071,2.505,2.4998,2.4825,2.4809,0,0,0,2.5341,2.5305,2.5281,2.5242,2.5215,2.5188,2.517,2.5157,2.5099,2.5185,2.504,2.5028,2.4998,2.4974,2.496,2.4933,2.5108,2.5109,2.5109,2.5197,2.5201,2.512,2.5115,2.5077,2.5059,2.5027,2.5005,2.5021,2.4986,2.4965,2.486,2.4832,2.4822,2.4793,2.4942,2.4942,2.4942,2.4941,2.5054,2.5003,2.5026,2.4955,2.4959,2.4899,2.4878,2.4891,2.4833,2.4877,2.485,2.4894,2.4804,2.4779,2.4938,2.4938,2.4939,2.4939,2.494,2.4957,2.4933,2.492,2.4863,2.4818,2.4816,2.4759,2.4766,2.4771,2.4745,2.4721,2.4722,2.472,2.4734,2.4734,2.4733,2.4733,2.4733,2.4732,2.486,2.4847,2.48,2.4765,2.474,2.4708,2.4689,2.4663,2.4636,2.4645,2.4644,2.466,2.4796,2.4828,2.4727,2.4728,2.4728,2.4729,2.4729,2.4708,2.4744,2.4671,2.4645,2.4604,2.4557,2.4567,2.4514,2.4494,2.4465,2.4488,2.4588,2.4598,2.4609,2.4635,2.449,2.449,2.449,2.449,2.4623,2.4631,2.4556,2.4515,2.4476,2.4477,2.439,2.4375,2.4363,2.435,2.4373,2.441,2.4421,2.4424,2.4439,2.4463,2.4277,2.4277,2.4276,2.4528,2.4532,2.4458,2.445,2.4417,2.4388,2.4306,2.4255,2.425,2.4268,2.4339,2.4348,2.4407,2.4427,2.4443,2.4466,2.451,0,0]}]]